Location: Unspecified
(0.0000°N, 0.0000°E)
Time: 18:55:56
(UTC+00:00)

DMSP B5D2-5 - Pass Details

Date: 14 June 2023
Orbit: 711 x 814 km, 98.7° (Epoch: 30 September)

Event Time Altitude Azimuth Distance (km) Brightness Sun altitude
Exits shadow 18:56:41 15° 138° (SE) 1,858 6.4 -12.9°
Maximum altitude 19:00:10 37° 77° (ENE) 1,115 5.5 -13.7°
Drops below altitude 10° 19:04:40 10° 10° (N) 2,237 7.6 -14.7°
Sets 19:07:06 0° 2° (N) 3,174 8.5 -15.3°
